Managua, Nicaragua

11:42 AM CST on April 19, 2018 (GMT -0600)
Augusto Cesar Sandino

Weather History for MNMG - August, 2013

Change the Weather History Date:

Thursday, August 15, 2013

  Actual Average Record
Temperature  
Mean Temperature 83 °F -  
Max Temperature 91 °F 88 °F 95 °F (1998)
Min Temperature 75 °F 70 °F 69 °F (2003)
Cooling Degree Days 18    
Growing Degree Days 33 (Base 50)    
Moisture  
Dew Point 74 °F    
Average Humidity 78    
Maximum Humidity 94    
Minimum Humidity 55    
Precipitation  
Precipitation 0.00 in - - ()
Sea Level Pressure  
Sea Level Pressure 29.79 in    
Wind  
Wind Speed 4 mph ()    
Max Wind Speed 18 mph    
Max Gust Speed -    
Visibility 5.6 miles    
Events Rain , Thunderstorm    
Averages and records for this station are not official NWS values.
T = Trace of Precipitation, MM = Missing Value Source: Averaged Metar Reports

Daily Weather History Graph

Daily Weather History Graph

Search for Another Location

Airport or City:

Astronomy

Aug. 15, 2013 Rise Set
Actual Time 5:33 AM CST 6:04 PM CST
Civil Twilight 5:11 AM CST 6:26 PM CST
Nautical Twilight 4:45 AM CST 6:52 PM CST
Astronomical Twilight 4:20 AM CST 7:17 PM CST
Moon 1:03 PM CST (8/15) No Moon Set
Length of Visible Light 13h 14m
Length of Day
12h 31m
Waxing Gibbous, 65% of the Moon is Illuminated
Aug 15
Waxing Gibbous
Aug 20
Full
Aug 28
Last Quarter
Sep 5
New
Sep 12
First Quarter

Hourly Weather History & Observations

Time (CST) Temp. Heat Index Dew Point Humidity Pressure Visibility Wind Dir Wind Speed Gust Speed Precip Events Conditions
12:00 AM 78.8 °F - 73.4 °F 83% 29.80 in 6.2 mi Calm Calm - N/A   Scattered Clouds
1:00 AM 78.8 °F - 73.4 °F 83% 29.80 in 6.2 mi Calm Calm - N/A   Scattered Clouds
3:00 AM 77.0 °F - 73.4 °F 89% 29.77 in 6.2 mi Calm Calm - N/A   Partly Cloudy
4:00 AM 75.2 °F - 73.4 °F 94% 29.77 in 6.2 mi Calm Calm - N/A   Partly Cloudy
5:00 AM 75.2 °F - 73.4 °F 94% 29.77 in 6.2 mi Calm Calm - N/A   Partly Cloudy
6:00 AM 75.2 °F - 71.6 °F 89% 29.80 in 6.2 mi Calm Calm - N/A   Partly Cloudy
7:00 AM 78.8 °F - 73.4 °F 83% 29.83 in 6.2 mi Calm Calm - N/A   Scattered Clouds
8:00 AM 82.4 °F 89.5 °F 75.2 °F 79% 29.83 in 6.2 mi East 6.9 mph - N/A   Partly Cloudy
9:00 AM 86.0 °F 93.4 °F 73.4 °F 66% 29.83 in 6.2 mi ENE 6.9 mph - N/A   Scattered Clouds
10:00 AM 86.0 °F 93.4 °F 73.4 °F 66% 29.83 in 6.2 mi ESE 9.2 mph - N/A   Scattered Clouds
11:00 AM 87.8 °F 95.6 °F 73.4 °F 62% 29.80 in 6.2 mi East 4.6 mph - N/A   Scattered Clouds
12:00 PM 89.6 °F 98.2 °F 73.4 °F 59% 29.80 in 6.2 mi East 13.8 mph - N/A   Mostly Cloudy
1:00 PM 89.6 °F 99.8 °F 75.2 °F 62% 29.80 in 6.2 mi East 9.2 mph - N/A   Scattered Clouds
2:00 PM 91.4 °F 102.5 °F 75.2 °F 59% 29.74 in 6.2 mi East 11.5 mph - N/A   Scattered Clouds
3:00 PM 91.4 °F 100.1 °F 73.4 °F 55% 29.71 in 6.2 mi East 9.2 mph - N/A   Scattered Clouds
4:00 PM 89.6 °F 99.8 °F 75.2 °F 62% 29.71 in 6.2 mi East 6.9 mph - N/A   Partly Cloudy
5:00 PM 91.4 °F 102.5 °F 75.2 °F 59% 29.74 in 6.2 mi ESE 9.2 mph - N/A   Scattered Clouds
5:15 PM - - - N/A% - 1.9 mi East 13.8 mph - N/A   Scattered Clouds
5:25 PM - - - N/A% - 0.6 mi ENE 18.4 mph - N/A Rain , Thunderstorm Heavy Thunderstorms and Rain
5:40 PM - - - N/A% - 3.7 mi East 9.2 mph - N/A Rain , Thunderstorm Light Thunderstorms and Rain
6:00 PM 75.2 °F - 73.4 °F 94% 29.77 in 3.7 mi SE 4.6 mph - N/A Rain , Thunderstorm Light Thunderstorms and Rain
6:05 PM - - - N/A% - 5.0 mi West 4.6 mph - N/A Thunderstorm Light Thunderstorm
7:00 PM 77.0 °F - 73.4 °F 89% 29.77 in 6.2 mi South 4.6 mph - N/A   Scattered Clouds
8:00 PM 77.0 °F - 75.2 °F 94% 29.77 in 6.2 mi ESE 4.6 mph - N/A   Scattered Clouds
9:00 PM 78.8 °F - 75.2 °F 89% 29.83 in 6.2 mi Calm Calm - N/A   Scattered Clouds
10:00 PM 78.8 °F - 75.2 °F 89% 29.86 in 6.2 mi Calm Calm - N/A   Scattered Clouds
11:00 PM 77.0 °F - 75.2 °F 94% 29.86 in 6.2 mi ESE 4.6 mph - N/A   Scattered Clouds